GEFSMW_con_cape1000_120.txt.gz
Probability
6 6 10 16 16 16 10 13 19 16 10 10 10 16 10 10 13 3 3 3 3 3 0 0 0 0 0 0 0 0 0 0 0 0 0 0 0 0 0 0 0 3 6
13 16 19 19 10 19 10 10 16 13 13 13 10 10 6 10 10 10 3 3 3 3 0 0 0 0 0 0 0 0 0 0 0 0 0 0 0 0 0 0 0 0 3
13 6 19 13 16 13 10 13 19 10 6 10 10 3 3 3 3 3 6 3 3 3 0 0 0 0 0 0 0 0 0 0 0 0 0 0 0 0 0 0 0 0 0
10 10 16 13 16 16 13 13 16 10 6 10 10 6 3 3 3 3 6 3 3 3 3 0 0 0 0 0 0 0 0 0 0 0 0 0 0 0 0 0 0 0 0
6 10 13 16 19 13 13 19 16 10 6 6 6 6 6 3 3 0 0 0 0 0 3 3 0 0 0 0 0 0 0 0 0 0 0 0 0 0 0 0 0 0 0
6 3 10 13 10 10 13 13 16 13 13 6 6 6 6 3 3 0 0 0 0 0 0 3 3 0 0 0 0 0 0 0 0 0 0 0 0 0 0 0 0 0 0
6 3 3 3 10 13 13 13 13 10 10 10 10 6 6 3 3 0 0 0 0 0 0 0 0 3 0 0 0 0 0 0 0 0 0 0 0 0 0 0 0 0 0
3 0 0 0 3 13 13 13 10 13 10 10 10 10 3 3 3 0 0 0 0 0 0 0 0 3 0 0 0 0 0 0 0 0 0 0 0 0 0 0 0 0 0
3 0 0 0 0 3 10 10 10 10 6 6 10 10 0 0 3 0 0 0 0 0 0 0 0 3 0 0 0 0 0 0 0 0 0 0 0 0 0 0 0 0 0
3 3 0 0 0 0 6 10 13 10 6 6 6 6 6 3 6 0 0 0 0 0 0 3 3 0 0 0 0 0 0 0 0 0 0 0 0 0 0 0 0 0 0
3 3 3 0 0 0 3 13 13 6 6 6 6 6 6 6 0 0 0 0 0 0 0 0 3 0 0 0 0 0 0 0 0 0 0 0 0 0 0 0 0 0 0
3 6 3 0 3 3 3 6 13 6 6 10 6 6 6 6 3 0 0 0 0 0 0 0 0 0 0 0 0 0 0 0 0 0 0 0 0 0 0 0 0 0 0
3 0 0 3 3 3 3 3 6 10 6 6 10 3 3 3 3 3 0 0 0 0 0 0 0 0 0 0 0 0 0 0 0 0 0 0 0 0 0 0 0 0 0
0 0 3 3 3 3 6 6 6 6 6 10 10 6 6 6 3 3 3 0 0 0 0 0 0 0 0 0 0 0 0 0 0 0 0 0 0 0 0 0 0 0 0
0 6 3 3 3 6 6 13 13 6 6 10 10 6 6 6 6 6 0 0 0 0 0 0 0 0 0 0 0 0 0 0 0 0 0 0 0 0 0 0 0 0 0
0 3 3 3 6 6 6 13 16 16 13 10 6 6 6 6 6 6 6 0 0 0 0 0 0 0 0 0 0 0 0 0 0 0 0 0 0 0 0 0 0 0 0
0 3 3 3 3 3 3 10 10 13 13 10 13 6 6 6 6 6 6 3 0 0 0 0 0 0 0 0 0 0 0 0 0 0 0 0 0 0 0 0 0 0 0
0 0 0 0 0 3 3 3 6 6 10 13 13 10 6 6 6 6 6 3 0 0 0 0 0 0 0 0 0 0 0 0 0 0 0 0 0 0 0 0 0 0 0
0 0 0 0 0 0 3 3 3 0 0 3 3 3 3 6 6 3 3 3 0 0 0 0 0 0 0 0 0 0 0 0 0 0 0 0 0 0 0 0 0 0 0
0 0 0 0 0 0 0 0 0 0 0 3 3 3 3 0 0 0 0 0 0 0 0 0 0 0 0 0 0 0 0 0 0 0 0 0 0 0 0 0 0 0 0
0 0 0 0 0 0 0 0 0 0 0 3 3 3 0 0 0 0 0 0 0 0 0 0 0 0 0 0 0 0 0 0 0 0 0 0 0 0 0 0 0 0 0
0 0 0 0 0 0 0 0 0 0 0 0 0 0 0 0 0 0 0 0 0 0 0 0 0 0 0 0 0 0 0 0 0 0 0 0 0 0 0 0 0 0 0
0 0 0 0 0 0 0 0 0 0 0 0 0 0 0 0 0 0 0 0 0 0 0 0 0 0 0 0 0 0 0 0 0 0 0 0 0 0 0 0 0 0 0
0 0 0 0 0 0 0 0 0 0 0 0 0 0 0 0 0 0 0 0 0 0 0 0 0 0 0 0 0 0 0 0 0 0 0 0 0 0 0 0 0 0 0
0 0 0 0 0 0 0 0 0 0 0 0 0 0 0 0 0 0 0 0 0 0 0 0 0 0 0 0 0 0 0 0 0 0 0 0 0 0 0 0 0 0 0
0 0 0 0 0 0 0 0 0 0 0 0 0 0 0 0 0 0 0 0 0 0 0 0 0 0 0 0 0 0 0 0 0 0 0 0 0 0 0 0 0 0 0

GEFSMW_con_cape1000_126.txt.gz
Probability
61 68 65 65 58 58 52 55 55 65 68 71 68 68 65 68 81 77 74 68 52 61 61 35 58 48 42 32 16 6 6 10 10 3 10 6 6 6 10 6 0 6 13
65 68 65 61 55 52 45 52 58 55 58 65 61 68 61 61 71 68 65 61 52 58 39 52 42 42 45 32 16 19 6 6 3 3 10 3 3 3 0 10 10 6 16
65 65 65 52 42 42 42 45 48 52 55 55 55 58 55 48 58 65 65 55 52 45 32 45 35 39 23 23 16 16 6 3 0 3 0 6 6 13 0 0 0 16 16
52 58 52 39 39 35 42 45 48 48 48 52 52 42 48 45 55 58 65 58 42 35 29 35 29 32 19 19 16 10 10 3 3 0 3 3 0 0 6 3 0 3 6
58 55 48 42 39 39 35 32 48 48 45 45 58 58 45 52 45 52 52 48 45 32 29 29 32 32 16 13 13 13 10 10 6 3 0 0 0 0 0 6 3 3 0
55 55 45 39 35 35 32 29 45 55 52 55 52 48 45 52 45 48 45 48 39 35 26 29 32 29 19 23 13 16 6 10 10 10 10 0 0 0 0 0 6 6 3
48 39 45 39 35 32 26 29 39 48 48 48 52 55 52 58 58 58 52 48 39 35 42 23 39 35 23 23 16 19 10 6 6 10 10 0 0 0 0 0 0 3 6
48 39 39 35 42 29 32 29 32 45 48 48 52 55 58 58 52 61 48 52 39 26 42 32 39 26 23 13 23 13 10 13 10 6 6 10 0 0 0 0 0 0 0
45 42 48 32 39 26 32 39 39 48 48 48 55 58 65 58 58 71 61 48 55 35 35 35 32 23 23 26 26 16 13 13 10 6 6 3 3 3 0 0 0 0 0
39 35 42 35 39 32 35 35 45 48 45 48 55 48 58 65 71 68 55 48 48 39 39 32 32 32 29 32 29 23 19 23 23 23 10 13 3 3 3 3 3 3 0
32 32 42 39 39 29 39 35 42 45 42 48 55 55 58 61 61 58 52 55 65 61 52 42 35 29 29 32 35 13 19 19 19 19 13 19 13 6 6 6 6 3 3
39 42 48 42 42 32 32 39 45 48 55 52 52 48 55 55 55 48 55 58 52 58 58 55 42 35 29 35 35 26 16 23 23 23 16 16 10 13 6 10 6 3 6
48 45 48 52 48 39 42 39 42 42 48 55 58 58 58 52 48 45 48 55 58 58 52 55 48 42 35 39 39 32 23 16 19 19 16 16 16 16 13 10 6 3 0
68 55 65 55 52 55 48 48 45 48 42 48 58 58 55 58 45 45 48 48 48 52 55 52 52 45 39 42 35 32 29 26 19 19 13 13 10 13 13 13 13 6 3
68 65 71 65 61 58 58 55 52 55 48 52 48 48 58 58 55 58 58 61 55 48 52 55 52 45 39 35 32 29 16 29 19 16 16 6 6 6 3 3 10 6 6
68 74 68 81 81 74 71 61 58 58 61 61 52 52 52 55 55 55 58 58 55 48 48 45 35 39 13 6 0 6 13 23 26 26 19 6 6 0 0 0 0 0 0
71 77 74 74 81 77 74 71 58 58 58 58 52 52 55 52 55 48 55 61 61 52 55 45 39 39 23 0 0 0 3 10 19 13 10 3 0 3 3 0 0 0 0
65 68 71 71 68 71 68 65 58 61 58 58 55 52 52 55 55 55 58 65 61 58 58 52 39 35 23 0 0 0 3 3 10 10 6 6 3 3 3 3 0 0 0
61 65 65 55 58 58 65 61 61 52 48 48 48 39 42 45 52 52 52 55 58 55 52 45 42 45 23 0 0 0 3 3 3 3 3 3 3 0 0 0 0 0 0
48 48 48 48 52 52 55 58 52 45 45 39 35 35 35 39 45 48 52 52 61 58 42 29 32 29 32 0 0 0 3 3 3 3 3 0 0 0 0 0 0 0 0
26 39 39 42 45 48 48 52 45 42 39 35 29 32 32 29 26 26 32 39 42 35 32 26 16 10 3 0 0 0 0 0 0 3 3 3 0 0 0 0 0 0 0
19 29 35 39 42 39 42 42 39 39 32 32 29 26 26 16 13 23 26 19 16 16 19 16 16 0 3 0 0 0 0 0 0 0 3 3 0 0 0 0 0 0 0
26 29 29 32 29 35 35 32 32 32 29 29 23 19 19 19 16 16 16 13 13 6 3 6 6 6 6 0 0 0 0 0 0 0 0 0 0 0 0 0 0 0 0
23 23 19 23 19 19 19 19 16 19 19 16 16 13 6 6 10 6 3 3 3 3 6 6 3 3 3 3 0 0 0 0 0 0 0 0 0 0 0 0 0 0 0
0 0 3 6 10 10 10 10 10 10 13 13 10 10 3 6 6 3 0 0 3 3 3 0 0 3 3 0 0 0 0 0 0 0 0 0 0 0 0 0 0 0 0
0 0 0 0 0 6 6 6 10 10 13 6 6 3 3 3 3 0 0 0 0 0 0 0 0 0 0 0 0 0 0 0 0 0 0 0 0 0 0 0 0 0 0

GEFSMW_con_cape1000_132.txt.gz
Probability
81 77 74 74 71 81 81 74 71 77 74 65 61 58 68 71 71 68 71 77 74 77 84 71 77 77 84 81 39 32 26 39 35 23 13 10 19 23 29 42 26 26 32
81 81 77 74 74 74 74 77 68 74 74 65 58 55 61 71 68 68 68 71 65 77 55 74 71 68 68 52 45 39 48 35 23 13 10 13 6 26 10 42 35 19 29
84 77 74 71 71 74 71 68 68 65 68 65 65 55 58 65 65 68 71 65 58 58 65 68 71 68 61 58 42 48 35 35 29 13 19 10 10 13 29 23 23 29 29
77 71 74 68 74 74 61 61 65 65 61 61 58 55 55 58 71 74 68 68 65 58 65 61 55 58 58 71 48 35 42 29 23 16 13 13 26 16 16 16 26 26 32
65 74 71 71 68 68 61 61 55 61 61 55 61 61 55 55 68 71 71 65 68 58 55 61 58 65 55 48 42 45 45 39 39 23 16 19 26 19 13 10 6 23 23
61 71 68 68 68 61 52 52 58 52 55 52 52 52 52 55 61 65 65 65 68 68 61 58 61 58 55 58 48 48 39 45 39 29 23 23 13 13 16 19 23 26 10
58 65 68 68 68 58 58 52 58 52 52 52 45 48 55 52 55 61 61 55 65 68 68 42 71 68 61 55 55 55 42 39 29 29 26 26 16 16 10 16 16 19 13
61 58 65 65 61 55 58 58 65 58 52 52 42 55 55 65 55 65 71 61 61 58 68 61 71 65 61 39 55 45 45 32 23 16 29 39 23 13 13 13 19 16 16
55 55 61 52 55 52 48 52 58 55 45 42 52 52 48 61 65 61 65 71 68 58 68 68 68 65 61 58 58 45 48 52 35 26 26 35 19 16 19 16 16 13 6
55 52 55 55 58 52 48 52 52 48 52 58 52 42 45 58 68 65 65 71 68 74 61 58 58 65 61 58 55 58 42 42 48 45 39 39 23 19 19 19 16 16 13
45 48 58 52 58 52 45 52 55 55 55 55 55 48 45 55 65 65 65 68 71 71 71 74 74 68 65 61 65 48 48 42 39 39 32 39 35 32 26 26 23 19 13
61 61 61 68 58 58 39 39 45 42 48 55 58 55 55 55 65 65 65 71 71 77 71 77 71 68 61 68 65 52 39 35 35 39 35 35 26 32 32 26 26 29 26
74 74 77 77 74 65 55 52 48 45 45 52 55 55 55 55 65 65 61 77 74 74 77 77 77 68 65 61 61 52 48 42 35 42 35 35 35 42 29 32 23 16 6
87 90 81 87 87 74 68 55 55 39 39 55 58 58 61 61 65 68 68 71 74 74 68 71 71 68 65 58 61 61 58 55 52 48 42 39 35 35 35 26 23 19 13
90 90 84 90 87 87 81 71 65 61 61 68 68 71 68 71 71 65 65 65 65 58 58 65 61 61 61 48 58 58 52 55 58 52 42 32 16 10 13 6 10 10 6
90 87 90 87 87 87 77 77 61 61 68 68 65 61 68 68 65 65 65 68 71 68 65 61 61 55 29 13 6 42 48 55 52 48 48 29 13 3 0 0 0 3 3
81 87 87 84 81 84 81 74 71 68 68 65 65 61 58 58 58 52 58 65 71 68 68 65 58 55 39 10 0 0 32 45 45 42 48 16 6 3 10 0 0 0 0
74 84 84 81 81 84 81 84 71 61 68 58 55 61 55 55 55 61 68 65 61 65 55 52 48 42 35 6 0 0 3 19 29 42 42 35 26 13 6 10 6 6 0
74 77 81 84 84 81 77 77 74 71 71 61 65 55 61 61 61 61 65 61 58 52 48 48 45 42 35 10 0 0 0 6 19 16 23 23 26 6 0 0 3 3 3
58 74 77 81 77 74 74 74 68 65 61 58 55 58 61 61 58 58 55 55 58 55 48 39 35 32 29 6 0 0 3 6 6 13 13 0 0 0 0 0 0 0 0
55 58 65 61 68 68 65 61 61 55 52 52 45 48 48 55 58 55 58 58 48 39 32 32 35 29 26 3 0 0 0 0 3 3 10 3 0 0 0 0 0 0 0
45 45 52 48 52 58 58 52 52 48 48 45 42 42 35 32 35 52 45 45 39 39 39 32 32 32 29 0 0 0 0 0 0 0 3 0 0 0 0 0 0 0 0
23 32 39 39 39 45 48 42 39 42 42 42 42 35 35 35 29 29 29 32 32 26 16 16 16 16 19 3 0 0 0 0 0 0 0 0 0 0 0 0 0 0 0
19 26 29 26 29 29 26 29 26 29 29 29 26 26 23 23 23 23 16 10 6 3 10 13 6 3 6 3 0 0 0 0 0 0 0 0 0 0 0 0 0 0 0
19 19 13 13 13 13 13 13 19 19 19 19 23 23 19 16 16 6 3 6 3 3 3 3 3 3 0 0 0 0 0 0 0 0 0 0 0 0 0 0 0 0 0
10 10 6 6 6 6 6 10 10 10 10 10 10 10 13 13 6 0 3 0 0 0 0 0 0 0 0 0 0 0 0 0 0 0 0 0 0 0 0 0 0 0 0

GEFSMW_con_cape1000_138.txt.gz
Probability
45 58 55 58 48 48 52 58 48 45 48 42 35 35 39 35 32 32 23 32 32 26 23 19 10 10 6 3 3 3 0 0 0 0 0 0 0 0 0 0 3 3 3
55 58 58 58 58 55 52 48 45 45 39 35 29 29 32 29 32 29 23 26 26 19 23 10 10 10 3 3 0 0 0 0 0 0 0 0 0 0 0 0 0 0 3
52 55 61 61 55 55 52 48 45 42 35 29 26 26 23 23 29 26 19 23 19 26 19 10 10 6 3 3 0 0 0 0 0 0 0 0 0 0 0 0 0 0 0
48 55 58 55 52 48 45 42 35 39 32 29 29 29 29 26 16 19 13 16 19 16 10 10 6 6 3 0 0 0 0 0 0 0 0 0 0 0 0 0 0 0 0
45 55 58 45 48 52 52 39 35 35 32 29 29 29 26 16 13 16 13 13 13 19 13 10 6 6 0 0 0 0 0 0 0 0 0 0 0 0 0 0 0 0 0
55 52 48 39 35 45 45 35 35 32 32 32 29 26 16 10 13 16 13 16 13 13 10 6 6 6 0 0 0 0 0 0 0 0 0 0 0 0 0 0 0 0 0
45 39 42 42 35 39 39 35 32 32 32 32 26 19 13 13 13 13 13 13 13 10 10 10 6 6 3 0 0 3 0 0 0 0 0 0 0 0 0 0 0 0 0
29 39 45 39 45 39 39 32 32 29 26 26 26 26 19 13 13 13 13 13 13 13 10 10 6 6 3 0 0 3 3 0 0 0 0 0 0 0 0 0 0 0 0
29 42 42 39 42 39 26 26 19 19 23 19 19 19 16 16 13 13 10 13 13 13 10 6 6 6 0 0 0 3 3 0 0 0 0 0 0 0 0 0 0 0 0
16 26 35 35 32 32 19 19 19 19 16 16 16 16 16 16 16 13 10 10 10 6 10 3 3 6 3 0 0 0 3 0 0 0 0 0 0 0 0 0 0 0 0
16 16 19 23 19 23 16 13 16 16 16 13 13 13 16 16 16 16 16 13 13 6 6 6 10 6 3 0 0 0 0 0 0 0 0 0 0 0 0 0 0 0 0
13 13 13 19 19 19 16 13 13 16 16 13 19 19 19 19 23 23 19 16 13 10 10 6 6 10 3 0 0 0 0 0 0 0 0 0 0 0 0 0 0 0 0
13 10 13 19 13 13 16 10 10 13 13 13 13 16 13 16 16 19 16 10 6 10 10 6 6 6 6 0 0 0 0 0 0 0 0 0 0 0 0 0 0 0 0
10 16 16 19 10 13 10 10 6 13 16 13 16 13 13 13 13 13 10 6 10 6 6 10 6 6 6 3 0 0 0 0 0 0 0 0 0 0 0 0 0 0 0
10 16 16 13 13 6 3 10 10 10 13 13 16 16 13 10 10 10 10 6 6 6 3 3 6 3 3 0 0 3 0 0 0 0 0 0 0 0 0 0 0 0 0
16 16 16 13 16 10 10 10 13 13 13 16 19 13 16 13 10 10 13 10 10 10 3 6 6 6 6 3 0 0 0 0 0 0 0 0 0 0 0 0 0 0 0
26 29 23 13 13 10 13 6 10 10 16 16 16 16 13 13 13 13 10 6 6 10 6 6 3 3 0 0 0 0 0 0 0 0 0 0 0 0 0 0 0 0 0
23 35 35 19 10 13 6 6 6 10 10 13 13 13 13 13 13 13 13 16 6 3 3 3 6 3 0 0 0 0 0 0 0 0 0 0 0 0 0 0 0 0 0
13 23 29 32 16 16 3 6 10 10 13 13 10 10 10 6 10 13 13 13 3 3 3 3 0 0 0 0 0 0 0 0 0 0 0 0 0 0 0 0 0 0 0
13 13 19 29 16 16 13 16 16 6 10 10 13 10 10 6 10 6 6 3 0 0 0 0 0 0 0 0 0 0 0 0 0 0 0 0 0 0 0 0 0 0 0
16 19 13 13 16 23 13 10 13 10 6 10 6 3 3 3 6 6 3 0 0 0 0 0 0 0 0 0 0 0 0 0 0 0 0 0 0 0 0 0 0 0 0
16 6 10 6 6 3 10 10 6 10 10 3 3 3 3 3 3 3 3 0 0 0 0 0 0 0 0 0 0 0 0 0 0 0 0 0 0 0 0 0 0 0 0
6 6 6 3 3 0 0 0 0 6 10 3 3 3 3 3 3 3 3 0 0 0 0 0 0 0 0 0 0 0 0 0 0 0 0 0 0 0 0 0 0 0 0
0 0 0 0 3 0 0 0 0 0 0 3 3 3 3 3 3 3 3 0 0 0 0 0 0 0 0 0 0 0 0 0 0 0 0 0 0 0 0 0 0 0 0
0 0 0 0 0 0 0 0 0 0 0 0 0 0 0 0 0 0 0 0 0 0 0 0 0 0 0 0 0 0 0 0 0 0 0 0 0 0 0 0 0 0 0
0 0 0 0 0 0 0 0 0 0 0 0 0 0 0 0 0 0 0 0 0 0 0 0 0 0 0 0 0 0 0 0 0 0 0 0 0 0 0 0 0 0 0

GEFSMW_con_cape1000_144.txt.gz
Probability
35 32 35 42 35 26 23 23 19 16 19 23 23 23 23 23 23 19 16 13 13 19 16 10 6 6 6 3 3 0 0 0 0 0 0 0 0 0 0 0 3 3 6
32 29 32 35 35 29 23 19 23 16 19 26 16 13 16 16 16 16 13 10 13 16 13 10 6 3 3 3 0 0 0 0 0 0 0 0 0 0 0 0 3 3 3
32 32 39 35 35 35 32 26 19 19 19 19 13 13 10 13 10 16 13 10 16 13 13 6 3 3 3 3 0 0 0 0 0 0 0 0 0 0 0 0 0 0 3
32 35 42 32 29 26 26 23 16 16 16 13 13 13 16 16 16 10 10 6 13 13 13 6 3 3 0 0 0 0 0 0 0 0 0 0 0 0 0 0 0 0 0
23 29 39 39 26 26 23 19 26 26 16 16 10 10 13 13 13 10 10 6 3 6 10 10 3 3 3 0 0 0 0 0 0 0 0 0 0 0 0 0 0 0 0
26 29 35 26 26 23 26 26 26 19 13 10 6 10 10 6 10 6 10 6 3 3 6 6 3 3 3 3 3 0 0 0 0 0 0 0 0 0 0 0 0 0 0
26 26 19 26 23 26 26 26 23 23 16 10 10 10 6 6 10 10 3 3 3 3 3 3 3 3 3 3 3 0 0 0 0 0 0 0 0 0 0 0 0 0 0
23 32 29 19 26 26 32 19 19 23 16 16 13 10 6 6 6 6 6 3 3 3 3 3 3 3 3 3 3 3 0 0 0 0 0 0 0 0 0 0 0 0 0
23 23 26 32 26 26 23 26 19 23 16 16 13 10 10 6 6 6 6 3 3 3 3 3 3 3 3 3 3 3 3 3 0 0 0 0 0 0 0 0 0 0 0
10 19 23 29 19 16 16 19 29 26 16 16 13 13 10 10 6 6 6 3 3 3 3 3 3 3 0 0 0 3 3 3 3 0 0 0 0 0 0 0 0 0 0
10 10 6 16 16 16 16 19 23 23 16 13 13 13 13 10 10 6 6 6 3 3 3 3 3 3 3 0 0 0 0 0 0 0 0 0 0 0 0 0 0 0 0
10 6 10 13 13 16 19 19 19 16 13 13 13 13 13 13 13 10 6 6 6 3 3 3 3 3 3 0 0 0 0 0 0 0 0 0 0 0 0 0 0 0 0
3 3 16 16 16 16 16 10 10 10 13 10 10 13 13 13 13 13 13 13 6 3 3 3 0 0 0 0 0 0 0 0 0 0 0 0 0 0 0 0 0 0 0
0 3 10 13 16 16 16 10 10 10 10 10 10 10 10 13 13 10 10 10 10 6 3 3 3 0 0 0 0 0 0 0 0 0 0 0 0 0 0 0 0 0 0
3 6 10 10 13 13 13 13 13 10 10 6 6 6 6 6 6 10 10 10 10 10 6 3 3 3 0 0 3 0 0 0 0 0 0 0 0 0 0 0 0 0 0
6 6 6 10 10 13 13 10 6 6 6 6 6 6 6 6 3 6 6 10 10 6 3 3 3 3 3 0 0 0 0 0 0 0 0 0 0 0 0 0 0 0 0
6 6 6 10 10 13 6 0 0 0 0 3 6 6 6 6 6 6 6 6 6 3 0 0 0 0 0 0 0 0 0 0 0 0 0 0 0 0 0 0 0 0 0
13 10 6 3 3 3 6 3 3 0 3 3 3 0 3 3 3 3 3 3 3 3 0 0 0 0 0 0 0 0 0 0 0 0 0 0 0 0 0 0 0 0 0
3 3 3 3 0 0 3 6 6 0 0 0 0 0 6 6 3 3 0 0 3 3 3 0 0 0 0 0 0 0 0 0 0 0 0 0 0 0 0 0 0 0 0
3 3 3 0 0 0 0 0 3 3 3 3 6 6 6 6 6 0 0 0 3 3 3 3 0 0 0 0 0 0 0 0 0 0 0 0 0 0 0 0 0 0 0
0 0 0 0 0 0 0 0 0 0 0 0 0 3 6 3 0 0 0 0 3 3 3 3 0 0 0 0 0 0 0 0 0 0 0 0 0 0 0 0 0 0 0
0 0 0 0 0 0 0 0 0 0 0 0 0 0 0 0 0 0 0 3 3 3 3 3 3 0 0 0 0 0 0 0 0 0 0 0 0 0 0 0 0 0 0
0 0 0 0 0 0 0 0 0 0 0 3 0 0 0 0 0 3 3 3 3 3 3 3 0 0 0 0 0 0 0 0 0 0 0 0 0 0 0 0 0 0 0
0 0 0 0 0 0 0 0 0 0 0 0 3 3 0 3 3 3 3 3 3 3 3 0 0 0 0 0 0 0 0 0 0 0 0 0 0 0 0 0 0 0 0
0 0 0 0 0 0 0 0 0 0 0 0 0 0 0 0 0 0 0 0 0 0 0 0 0 0 0 0 0 0 0 0 0 0 0 0 0 0 0 0 0 0 0
0 0 0 0 0 0 0 0 0 0 0 0 0 0 0 0 0 0 0 0 0 0 0 0 0 0 0 0 0 0 0 0 0 0 0 0 0 0 0 0 0 0 0

GEFSMW_con_cape1000_150.txt.gz
Probability
90 87 90 90 94 94 87 81 84 81 77 77 87 90 94 87 90 94 81 84 84 87 94 77 94 87 74 71 52 55 58 45 42 29 26 19 10 13 19 19 13 6 16
94 87 87 87 87 87 84 84 87 87 87 84 84 90 87 90 77 81 87 87 77 87 74 87 87 84 90 87 71 68 52 52 42 29 29 13 13 16 3 26 23 6 16
94 87 84 84 81 84 81 74 74 81 81 81 84 71 84 74 61 71 74 77 77 77 74 84 74 81 71 68 81 74 61 42 45 26 16 6 6 10 13 6 10 19 29
90 87 84 84 84 81 77 74 74 74 71 74 61 58 58 45 48 68 74 77 74 77 74 74 81 77 68 74 61 45 58 58 39 32 26 13 13 10 6 13 10 26 35
81 81 81 81 77 71 74 74 77 74 71 74 68 65 55 48 48 55 65 68 77 74 68 71 74 77 68 65 55 61 58 52 42 29 19 19 19 10 13 13 10 6 6
68 65 81 81 71 71 68 68 77 77 71 68 61 58 55 52 45 48 45 52 58 68 65 61 77 74 68 68 71 65 61 52 48 35 29 19 13 16 19 13 10 6 6
68 68 74 74 71 68 65 58 71 71 71 55 52 48 42 48 48 52 48 45 39 42 61 55 77 74 71 61 68 71 61 52 52 55 32 19 16 13 19 13 10 6 0
68 74 84 77 65 65 61 68 68 68 61 48 48 52 48 58 55 52 42 48 45 42 52 55 61 68 65 55 71 61 58 61 61 29 48 48 10 16 13 10 10 13 10
68 77 77 74 68 61 61 52 68 65 58 42 48 39 39 39 39 48 52 39 45 39 45 48 55 52 55 65 68 65 65 61 42 32 35 35 26 16 19 13 13 10 10
74 71 77 65 65 65 58 55 52 61 55 52 48 39 45 42 48 42 39 42 45 39 39 45 45 52 55 58 65 61 65 55 55 48 39 39 26 32 19 23 19 19 16
65 68 71 68 65 52 48 55 52 58 61 48 45 48 52 45 48 42 39 39 45 45 39 32 35 35 42 45 61 52 45 42 39 29 29 35 35 39 23 23 23 19 23
65 58 61 58 61 55 52 48 48 45 48 48 48 52 45 48 45 42 35 35 42 39 39 35 39 32 32 35 45 35 26 26 29 32 29 32 26 45 39 39 32 29 32
61 58 58 65 61 55 55 55 48 45 45 48 52 52 45 45 42 39 39 39 39 42 42 42 48 42 39 42 39 35 26 29 29 23 23 23 26 39 39 32 19 16 10
61 58 61 68 55 52 58 52 48 48 39 48 48 48 42 39 35 32 32 32 35 32 32 32 39 39 35 29 39 39 39 29 19 19 19 16 23 29 32 29 39 16 23
65 55 55 65 61 58 58 52 48 48 45 45 39 39 42 45 39 32 35 29 32 29 35 39 39 35 26 23 42 39 29 32 23 23 23 16 6 6 10 6 26 26 19
61 55 61 58 58 58 58 52 45 52 42 42 26 26 35 39 42 32 32 29 35 35 32 35 29 26 13 3 0 13 23 26 26 26 23 13 6 0 0 0 0 0 13
55 58 61 58 65 61 58 52 48 45 45 42 35 35 35 32 29 19 23 29 32 32 29 26 23 19 13 0 0 0 13 23 32 35 29 6 0 0 13 0 0 0 0
48 48 48 58 52 48 58 52 45 39 42 45 39 32 35 35 35 29 29 29 32 29 29 19 13 19 10 0 0 0 0 19 13 19 23 26 23 0 0 6 6 10 10
45 48 48 58 45 42 48 55 52 42 42 35 32 35 32 39 39 32 32 35 29 26 23 16 16 10 13 0 0 0 16 26 19 10 10 10 10 0 0 0 6 3 3
32 32 35 45 45 39 45 55 52 55 42 42 39 32 32 35 32 29 29 29 29 26 16 13 13 13 13 3 0 0 19 16 13 10 10 0 0 0 0 0 0 3 0
26 26 35 42 42 39 32 42 39 45 48 48 48 39 35 35 32 32 32 26 23 23 13 10 16 13 3 3 0 0 10 13 10 6 10 3 0 0 0 0 0 0 0
19 19 26 26 26 26 26 29 42 35 48 42 32 26 35 19 16 29 26 23 19 13 13 19 10 10 3 3 0 0 0 0 3 6 3 3 0 0 0 0 0 0 0
19 16 16 16 19 23 29 26 26 32 35 26 26 23 23 16 13 16 19 19 16 10 6 3 6 3 3 0 0 0 0 0 0 3 0 0 0 0 0 0 0 0 0
16 16 16 16 19 13 10 13 19 16 16 10 10 10 6 6 3 3 3 3 3 3 3 3 3 0 0 0 0 0 0 0 0 0 0 0 0 0 0 0 0 0 0
10 3 10 13 13 10 6 10 6 3 3 6 3 3 3 3 3 0 0 0 0 0 3 0 0 0 0 0 0 0 0 0 0 0 0 0 0 0 0 0 0 0 0
6 3 3 3 6 3 3 3 3 3 0 0 0 3 3 0 0 0 0 0 0 0 0 0 0 0 0 0 0 0 0 0 0 0 0 0 0 0 0 0 0 0 0

GEFSMW_con_cape1000_156.txt.gz
Probability
97 100 97 100 100 100 94 94 90 90 90 90 87 84 84 87 90 94 90 97 94 97 100 90 97 100 97 94 90 90 90 81 81 74 65 61 48 65 68 61 52 52 48
94 97 97 100 100 97 94 94 94 90 90 90 90 87 81 77 77 84 90 97 97 100 90 97 90 87 94 94 94 90 87 77 74 68 65 39 45 61 19 65 58 42 42
97 94 94 97 97 97 94 90 94 90 90 87 90 84 87 81 81 87 90 87 90 94 94 87 87 84 90 94 94 90 74 74 61 65 65 39 26 42 45 42 39 48 45
90 94 97 97 94 94 94 90 90 87 90 87 87 77 74 71 71 81 81 84 87 87 90 81 84 87 84 90 90 81 84 71 65 65 68 58 48 32 29 42 42 58 52
84 87 81 90 87 87 90 90 90 90 90 90 87 81 77 74 77 77 77 77 77 87 90 87 87 90 90 94 94 84 84 71 65 61 65 65 61 39 29 19 29 32 42
74 87 87 90 90 81 81 84 87 90 90 90 84 81 87 81 71 68 65 65 81 84 87 87 90 90 94 94 87 81 77 77 77 84 81 77 58 39 39 26 26 16 29
74 84 87 87 87 84 81 81 87 87 87 84 84 90 84 74 71 71 71 74 65 74 77 77 84 94 94 90 90 84 74 74 77 81 84 61 61 55 48 39 26 29 35
77 81 87 87 87 84 81 84 84 81 81 81 87 81 87 77 77 68 68 65 65 61 71 77 81 84 77 74 90 90 84 74 77 58 71 74 68 61 52 39 26 16 23
65 71 84 77 84 84 84 84 81 84 84 81 81 81 84 84 81 77 71 68 68 61 65 61 68 71 71 71 77 77 77 68 65 61 68 71 68 68 58 55 39 23 16
71 74 74 71 71 77 84 81 81 77 81 77 77 71 74 74 71 74 74 68 65 68 61 55 58 71 68 68 71 74 68 61 58 61 61 55 55 61 58 52 45 48 32
61 65 71 77 74 81 77 77 81 74 71 74 74 74 71 68 68 58 58 68 65 61 61 48 52 52 52 58 55 58 55 55 55 48 48 55 48 48 52 52 45 39 35
61 65 71 77 81 68 77 71 68 71 71 74 74 77 74 68 55 48 52 65 58 52 52 48 45 42 42 42 52 52 48 48 52 45 45 39 35 42 45 45 42 32 29
58 58 71 81 77 84 87 74 68 65 65 74 71 74 77 68 65 55 58 52 52 48 39 39 42 39 45 45 52 48 42 42 39 39 32 32 32 35 29 32 32 42 10
71 65 68 74 77 71 77 74 71 71 68 74 74 71 71 68 61 55 55 45 45 42 42 39 35 42 52 42 39 35 39 35 39 32 23 29 32 29 29 19 29 19 19
71 74 81 77 77 71 74 68 65 74 74 68 61 55 68 58 61 58 42 45 42 35 35 35 35 39 29 23 35 39 29 32 32 29 23 19 19 16 10 3 13 6 10
68 65 77 81 77 74 71 74 68 71 74 68 61 58 55 55 52 52 52 48 45 39 32 19 19 16 13 3 0 10 23 19 19 19 19 23 13 3 0 0 0 0 3
65 65 68 77 81 71 81 71 71 68 68 65 55 55 52 45 45 42 45 48 45 35 29 23 23 16 13 0 0 0 10 13 16 19 23 13 6 3 3 0 0 0 0
61 58 58 65 65 68 68 68 68 58 58 58 45 48 48 45 45 42 39 48 42 42 39 32 23 13 6 3 0 0 0 10 13 13 13 13 10 3 3 3 0 0 0
55 55 55 58 61 65 65 55 65 61 55 58 52 52 48 48 48 42 35 45 39 35 35 23 16 13 6 3 0 0 6 16 10 3 3 3 6 6 0 0 3 3 6
52 58 58 58 68 71 61 58 58 61 55 58 58 55 55 52 45 35 32 35 35 23 23 16 16 10 6 3 0 0 0 10 3 3 3 3 0 0 0 0 0 3 3
52 55 58 58 58 61 61 55 55 52 48 55 55 52 45 45 35 35 35 26 26 19 19 19 16 10 3 3 0 0 0 3 3 6 3 3 0 0 0 0 0 0 0
32 32 35 42 45 48 48 45 52 52 39 42 39 39 32 29 19 16 13 19 16 16 16 6 10 6 3 3 0 0 0 0 0 0 0 0 0 0 0 0 0 0 0
32 32 35 39 39 42 45 39 42 42 32 35 35 32 26 16 19 16 16 10 6 6 6 3 3 3 3 0 0 0 0 0 0 0 0 0 0 0 0 0 0 0 0
26 26 23 29 29 29 26 29 19 26 26 26 19 16 6 3 3 0 3 3 3 6 6 3 3 3 0 0 0 0 0 0 0 0 0 0 0 0 0 0 0 0 0
19 23 26 26 26 19 13 13 19 13 19 10 10 3 3 0 0 0 0 0 0 0 0 0 0 0 0 0 0 0 0 0 0 0 0 0 0 0 0 0 0 0 0
16 13 13 6 6 10 6 6 3 10 10 10 3 0 0 3 0 0 0 0 0 0 0 0 0 0 0 0 0 0 0 0 0 0 0 0 0 0 0 0 0 0 0

GEFSMW_con_cape1000_162.txt.gz
Probability
84 87 87 90 81 81 87 77 77 81 74 77 74 71 65 58 61 58 65 55 48 39 35 45 26 16 19 10 10 10 10 3 0 3 0 0 0 0 0 0 0 0 3
77 84 90 97 87 94 90 87 84 84 77 74 68 58 65 52 48 48 52 52 58 45 35 32 23 19 16 10 10 10 6 6 3 0 0 0 0 0 0 0 0 0 0
81 87 90 81 81 84 84 87 87 84 84 74 65 52 55 52 45 39 48 45 52 48 32 23 26 19 16 10 6 6 6 6 3 0 0 0 0 0 0 0 0 0 0
77 87 94 90 84 84 84 84 81 77 74 74 68 58 55 48 35 35 29 39 45 52 35 26 19 16 13 10 6 3 3 3 0 0 0 0 0 0 0 0 0 0 0
71 71 74 81 81 77 77 74 74 77 65 65 61 48 45 32 23 19 26 23 26 32 39 23 19 16 6 6 6 3 3 3 3 0 0 0 0 0 0 0 0 0 0
65 68 68 68 77 77 77 71 71 68 68 61 58 48 39 29 26 19 23 19 16 23 29 23 10 6 6 6 6 6 3 3 3 0 0 0 0 0 0 0 0 0 0
61 61 55 65 68 77 77 71 65 65 58 55 58 52 39 35 32 23 26 26 16 13 16 19 3 3 3 3 6 6 3 3 3 3 0 0 0 0 0 0 0 0 0
58 58 65 65 65 71 71 65 58 58 61 55 55 52 48 35 26 13 10 10 10 6 6 6 6 6 6 10 3 3 3 3 3 3 3 0 0 0 0 0 0 0 0
52 58 65 65 65 65 68 65 61 61 58 58 45 48 48 32 16 13 13 10 6 6 10 10 10 6 6 10 13 6 6 6 6 6 6 3 3 0 0 0 0 0 0
55 58 58 58 58 55 58 55 61 55 52 52 48 48 35 26 19 13 10 13 10 10 10 10 10 10 6 6 10 10 6 6 6 6 6 3 3 3 0 0 0 0 0
48 58 52 52 48 52 55 52 52 52 48 48 39 39 29 23 19 19 16 13 13 10 10 10 6 10 10 6 6 6 6 10 6 3 3 3 3 3 3 3 3 0 0
42 42 45 42 42 39 52 48 52 48 45 35 29 29 26 26 23 23 13 10 10 10 10 10 10 13 13 6 6 6 6 10 6 3 3 3 3 3 3 3 3 3 0
39 35 32 39 45 42 48 52 45 45 42 32 32 32 29 26 19 16 10 10 10 10 10 10 10 6 10 6 10 13 10 6 6 3 3 3 3 3 3 3 3 3 3
39 35 32 32 29 32 42 45 35 42 35 29 26 29 26 23 16 13 10 10 10 10 10 6 6 6 6 6 6 3 6 6 6 6 3 3 3 3 3 3 3 0 0
42 42 39 26 29 26 29 32 35 32 32 26 26 26 26 16 13 13 13 13 10 10 6 6 6 6 3 3 3 3 3 0 0 0 0 0 0 0 0 0 0 0 0
45 39 39 26 32 32 32 26 23 26 19 26 26 23 19 16 13 13 13 10 10 10 6 10 3 3 0 0 0 0 0 0 0 0 0 0 0 0 0 0 0 0 0
35 32 35 26 26 29 29 19 19 19 16 16 19 16 13 16 13 10 13 13 13 10 10 3 0 0 0 0 0 0 0 0 0 0 0 0 0 0 0 0 0 0 0
26 29 32 23 26 26 32 19 16 23 19 16 13 16 13 13 13 10 13 13 10 6 3 0 0 0 0 0 0 0 0 0 0 0 0 0 0 0 0 0 0 0 0
29 23 32 26 26 29 23 23 23 19 19 16 16 16 16 16 16 13 13 10 10 3 0 0 0 0 0 0 0 0 0 0 0 0 0 0 0 0 0 0 0 0 0
23 29 26 23 16 16 16 13 13 16 16 13 13 13 13 16 13 10 6 3 3 3 0 0 0 0 0 0 0 0 0 0 0 0 0 0 0 0 0 0 0 0 0
13 16 16 13 10 6 3 3 10 6 10 13 13 13 10 10 6 6 3 3 3 0 0 0 0 0 0 0 0 0 0 0 0 0 0 0 0 0 0 0 0 0 0
13 13 13 13 10 10 6 3 6 3 3 3 6 6 3 3 3 3 3 3 0 0 0 0 0 0 0 0 0 0 0 0 0 0 0 0 0 0 0 0 0 0 0
16 16 13 13 10 6 6 6 3 0 0 0 0 0 0 0 0 0 0 0 0 0 0 0 0 0 0 0 0 0 0 0 0 0 0 0 0 0 0 0 0 0 0
16 13 10 10 6 6 6 6 3 0 0 0 0 0 0 0 0 0 0 0 0 0 0 0 0 0 0 0 0 0 0 0 0 0 0 0 0 0 0 0 0 0 0
10 10 10 10 6 6 3 3 0 0 0 0 0 0 0 0 0 0 0 0 0 0 0 0 0 0 0 0 0 0 0 0 0 0 0 0 0 0 0 0 0 0 0
6 6 6 3 0 0 0 0 0 0 0 0 0 0 0 0 0 0 0 0 0 0 0 0 0 0 0 0 0 0 0 0 0 0 0 0 0 0 0 0 0 0 0

GEFSMW_con_cape1000_168.txt.gz
Probability
55 55 52 65 61 58 42 45 42 39 35 39 39 35 35 35 32 32 29 23 23 23 16 10 10 10 10 6 6 6 6 6 0 0 0 0 0 0 0 0 3 0 0
42 45 52 48 61 52 48 48 39 35 35 35 39 39 35 29 29 35 32 29 26 26 19 10 10 13 13 10 6 6 6 6 3 3 0 3 0 0 0 0 0 0 0
39 45 45 45 48 48 52 52 39 42 35 32 29 42 29 26 19 26 32 26 29 19 19 13 6 6 10 10 6 6 6 6 3 3 3 3 0 0 0 0 0 0 0
45 35 48 52 52 42 39 42 42 48 45 32 35 39 42 35 32 29 26 23 23 29 19 13 6 6 10 10 6 6 6 6 3 3 0 0 0 0 0 0 0 0 0
48 42 48 48 45 48 42 39 42 48 42 39 39 39 35 32 19 13 13 13 16 19 16 16 13 6 6 6 6 6 6 6 6 6 0 0 0 0 0 0 0 0 0
39 42 45 48 48 45 55 45 45 42 39 42 39 39 32 19 10 6 10 10 10 16 13 19 10 6 10 6 6 6 6 6 3 3 0 0 0 0 0 0 0 0 0
42 39 39 42 42 45 58 52 52 42 35 39 39 35 32 19 16 16 6 6 6 6 6 10 6 6 6 3 3 3 6 6 3 3 3 0 0 0 0 0 0 0 0
35 35 35 39 45 52 52 52 48 45 45 39 32 35 29 19 19 10 6 6 10 6 6 3 3 3 3 3 3 3 3 3 3 3 3 3 3 0 0 0 0 0 0
32 39 39 32 45 55 48 45 42 42 39 42 35 32 23 16 13 13 6 6 3 0 3 3 3 3 3 3 3 3 3 3 3 3 3 3 0 0 0 0 0 0 0
42 39 39 42 42 48 42 39 35 35 32 29 32 32 26 16 16 16 10 6 6 6 6 3 3 3 3 3 3 3 3 3 3 3 3 0 0 0 0 0 0 0 0
39 42 39 42 45 42 42 39 32 26 26 26 23 29 23 16 13 13 16 6 6 6 3 3 3 3 3 3 3 3 6 6 6 6 0 3 3 3 3 3 3 3 3
32 35 39 39 39 39 39 39 35 29 23 19 23 26 19 13 13 10 10 10 10 3 3 3 3 3 3 3 3 3 6 6 3 3 3 3 3 3 3 3 3 3 3
26 35 32 35 32 29 32 29 29 29 26 19 19 23 13 6 10 10 6 6 6 3 3 3 3 3 3 6 6 6 6 3 3 3 3 3 0 0 0 0 0 0 0
26 29 32 26 26 29 29 32 26 29 29 23 19 19 13 10 6 6 6 6 6 10 6 6 6 6 6 6 6 6 3 3 0 0 0 0 0 0 0 0 0 0 0
29 32 29 26 26 19 26 26 26 23 13 10 10 13 6 6 10 6 6 6 6 10 6 6 6 6 6 6 6 3 0 0 0 0 0 0 0 0 0 0 0 0 0
26 26 26 23 19 16 16 13 13 19 13 16 10 6 6 10 10 10 6 6 6 6 3 6 6 3 3 3 0 0 0 0 0 0 0 0 0 0 0 0 0 0 0
26 23 26 19 13 13 10 19 16 13 13 13 13 10 6 6 6 6 6 6 3 3 3 3 3 3 0 0 0 0 0 0 0 0 0 0 0 0 0 0 0 0 0
29 29 29 19 16 13 13 10 16 10 13 13 10 6 6 6 6 6 6 3 3 3 3 3 0 0 0 0 0 0 0 0 0 0 0 0 0 0 0 0 0 0 0
16 23 16 16 16 13 6 3 3 6 10 6 6 6 6 6 6 6 3 3 3 3 3 0 0 0 0 0 0 0 0 0 0 0 0 0 0 0 0 0 0 0 0
13 10 10 13 10 3 0 0 0 0 10 6 6 6 6 6 6 3 3 3 3 3 0 0 0 0 0 0 0 0 0 0 0 0 0 0 0 0 0 0 0 0 0
10 13 10 10 6 3 3 3 3 3 3 3 10 6 6 6 6 3 3 0 0 0 0 0 0 0 0 0 0 0 0 0 0 0 0 0 0 0 0 0 0 0 0
6 6 6 6 0 0 3 3 6 3 3 3 6 3 3 3 3 3 0 0 0 0 0 0 0 0 0 0 0 0 0 0 0 0 0 0 0 0 0 0 0 0 0
10 6 3 3 0 0 0 0 0 0 0 0 0 0 0 0 0 0 0 0 0 0 0 0 0 0 0 0 0 0 0 0 0 0 0 0 0 0 0 0 0 0 0
10 3 3 3 0 0 0 0 0 0 0 0 0 0 0 0 0 0 0 0 0 0 0 0 0 0 0 0 0 0 0 0 0 0 0 0 0 0 0 0 0 0 0
6 3 3 0 0 0 0 0 0 0 0 0 0 0 0 0 0 0 0 0 0 0 0 0 0 0 0 0 0 0 0 0 0 0 0 0 0 0 0 0 0 0 0
6 6 3 0 0 0 0 0 0 0 0 0 0 0 0 0 0 0 0 0 0 0 0 0 0 0 0 0 0 0 0 0 0 0 0 0 0 0 0 0 0 0 0

GEFSMW_con_cape1000_174.txt.gz
Probability
100 97 97 94 94 97 97 97 97 97 97 94 94 94 94 90 90 90 77 81 87 84 90 81 94 90 77 81 71 74 68 74 68 45 35 29 32 39 58 52 48 35 35
97 94 94 94 97 97 97 94 94 97 97 94 94 97 97 94 94 90 84 77 77 74 74 84 77 77 84 84 81 84 65 45 58 52 42 23 16 58 19 42 55 48 45
94 97 90 90 94 97 94 90 94 94 94 94 94 90 94 90 87 90 90 84 84 81 81 81 74 77 81 84 87 90 77 68 61 58 52 16 19 29 26 39 35 45 55
84 84 90 90 94 94 90 90 87 87 94 90 87 90 90 87 90 87 90 84 77 74 74 71 74 71 74 87 84 81 81 87 68 71 71 42 23 32 29 16 26 39 55
81 81 87 90 87 87 87 87 77 87 87 84 87 84 84 81 84 90 87 84 77 74 71 81 77 77 71 84 87 87 97 81 81 68 71 61 58 35 29 26 29 29 32
71 77 84 90 87 84 84 81 84 84 84 84 81 84 84 84 81 84 90 74 77 81 74 68 71 71 74 81 90 90 87 87 87 84 65 58 58 52 45 32 35 39 19
74 84 87 84 87 84 81 74 81 84 84 84 81 81 81 84 74 77 77 77 65 58 58 48 71 71 74 71 84 90 84 77 84 81 81 68 61 52 42 39 39 45 23
71 81 87 87 90 90 74 74 81 84 84 81 77 81 84 87 84 74 81 71 61 58 48 52 58 55 55 55 71 68 71 81 71 65 84 84 65 61 52 52 48 48 39
77 84 87 87 90 81 77 77 81 81 81 81 81 84 84 81 77 81 65 61 68 55 45 55 55 58 61 61 74 68 71 71 81 74 77 71 65 65 48 45 39 42 35
81 71 84 87 84 81 81 74 74 77 77 77 81 71 74 74 65 58 68 68 61 55 52 52 55 55 48 58 52 61 65 68 71 74 71 68 48 58 48 45 39 42 48
77 68 77 81 81 77 74 77 77 74 71 71 71 74 68 61 52 55 55 61 65 52 55 55 58 52 52 52 52 52 45 55 55 52 48 52 58 45 45 48 45 42 39
71 74 74 74 74 74 77 71 68 65 71 68 71 71 61 52 48 45 61 61 52 52 55 55 45 45 42 39 39 39 35 39 42 45 42 42 35 45 55 48 45 42 45
71 71 74 74 74 74 74 74 71 71 68 61 61 61 58 58 48 48 48 55 55 52 45 52 45 42 39 35 39 35 26 26 35 39 32 29 35 39 32 42 35 32 19
77 77 77 74 77 77 71 71 68 65 58 58 58 58 55 42 42 42 42 48 52 45 39 35 35 35 32 26 16 19 19 23 29 23 23 23 16 26 35 29 39 29 32
74 74 74 74 74 71 68 61 61 58 58 48 58 55 42 39 35 35 39 35 39 19 32 32 32 26 16 10 13 23 16 13 16 16 10 6 3 0 0 0 23 26 23
74 71 71 65 68 71 65 61 61 58 55 52 45 42 35 32 26 29 29 35 35 35 32 26 19 13 3 3 3 6 3 10 10 10 6 6 3 0 0 0 0 3 6
68 65 65 65 61 58 58 61 55 52 48 45 42 35 29 23 23 19 23 32 32 26 23 10 13 10 3 3 3 3 3 10 6 6 10 0 0 0 0 0 0 0 0
61 61 61 55 58 58 58 55 52 45 45 42 35 35 26 23 19 19 23 26 23 19 19 13 6 6 3 3 0 0 3 3 3 3 6 10 6 3 3 3 3 3 3
68 65 61 55 55 58 55 52 42 39 39 32 32 26 23 23 19 23 23 23 13 13 6 6 6 10 3 0 0 0 3 3 0 0 0 3 3 0 0 0 3 3 3
65 58 55 58 55 55 52 42 35 35 35 29 26 23 23 23 26 26 19 13 10 6 6 10 10 6 0 0 0 0 0 0 0 0 0 0 0 0 0 0 0 3 3
58 52 48 45 42 42 39 35 32 29 29 32 29 26 23 19 19 19 19 16 10 6 0 0 0 0 0 0 0 0 0 0 0 0 0 0 0 0 0 0 0 0 0
52 45 42 39 35 35 32 32 32 32 32 32 29 29 23 19 13 16 16 13 3 3 3 3 3 3 3 0 0 0 0 0 0 3 3 3 0 0 0 0 0 0 0
39 35 32 39 35 32 35 35 32 26 26 29 29 29 19 16 13 16 10 10 3 3 3 3 3 3 3 0 0 0 0 0 0 0 0 0 0 0 0 0 0 0 0
35 35 35 29 29 32 29 26 26 26 26 23 10 10 0 3 3 6 6 3 0 3 3 3 3 0 0 0 0 0 0 0 0 0 0 0 0 0 0 0 0 0 0
29 29 29 23 19 23 19 19 19 16 13 3 3 0 0 0 0 0 0 0 0 0 0 0 0 0 0 0 0 0 0 0 0 0 0 0 0 0 0 0 0 0 0
23 23 19 16 16 13 16 13 16 13 6 3 0 0 0 0 0 0 0 0 0 0 0 0 0 0 0 0 0 0 0 0 0 0 0 0 0 0 0 0 0 0 0

GEFSMW_con_cape1000_180.txt.gz
Probability
94 90 90 94 94 97 97 94 94 94 94 94 94 97 97 97 97 97 97 94 94 87 94 84 94 94 90 94 94 87 90 90 90 84 77 84 81 81 81 74 74 55 55
94 94 94 94 94 97 97 94 94 94 94 94 94 94 94 97 97 100 97 97 97 87 74 84 81 84 94 90 87 94 97 90 74 77 74 65 58 81 48 77 71 61 71
90 97 94 94 90 94 94 94 94 94 90 90 94 90 94 97 97 94 97 97 100 90 74 81 77 74 77 87 87 90 87 74 81 71 71 52 35 55 71 68 65 74 81
87 90 97 94 90 90 94 94 94 94 94 90 87 90 94 87 94 94 87 90 87 84 87 84 77 81 71 77 81 84 77 74 68 74 77 68 68 48 45 52 55 68 71
84 87 90 94 94 90 94 94 94 94 94 94 94 97 87 87 87 94 87 84 84 81 81 81 81 77 77 77 81 87 87 77 68 65 65 55 65 52 42 19 42 55 61
74 84 90 90 90 90 94 90 97 94 94 94 94 94 87 87 84 87 84 84 84 81 71 68 65 77 74 74 77 84 87 87 77 77 81 68 61 48 32 29 29 35 39
68 84 90 94 90 90 90 94 94 97 97 94 90 87 81 81 84 87 77 71 68 71 68 74 77 68 68 71 74 77 77 77 68 77 87 71 68 48 45 35 32 19 26
71 90 94 94 94 90 87 90 94 90 90 87 84 81 84 84 77 74 77 74 68 65 68 71 71 65 77 74 77 71 65 68 65 61 77 65 65 65 52 45 29 13 16
58 77 84 94 94 94 90 94 90 87 87 84 87 87 87 84 84 84 77 65 74 68 68 68 71 71 68 68 65 61 71 71 71 61 68 55 52 52 55 48 48 23 10
61 68 87 87 90 94 94 90 87 87 87 87 87 84 84 84 84 77 74 65 65 68 68 61 58 58 71 65 61 58 71 61 61 58 48 55 55 48 52 42 42 39 29
65 74 74 87 90 90 90 87 87 87 87 87 87 87 84 84 84 77 61 65 65 65 58 55 55 45 58 52 52 52 61 52 52 48 45 45 55 45 42 35 32 35 19
68 71 74 84 81 77 77 77 77 74 77 81 81 84 87 81 77 71 68 68 58 58 61 52 42 35 42 45 42 45 45 42 35 39 39 32 32 35 32 32 29 23 16
71 74 87 84 81 81 81 77 74 74 77 77 81 81 81 77 77 68 68 61 58 55 48 42 42 42 42 35 32 29 32 32 35 29 26 26 26 29 26 26 23 19 6
71 77 87 84 81 81 74 74 71 68 74 77 77 77 71 71 68 61 61 55 55 42 42 42 35 32 39 32 26 26 23 19 19 19 16 16 19 19 19 16 13 10 16
77 84 84 81 81 81 71 71 71 74 74 71 68 68 68 65 61 55 55 45 39 39 35 35 35 26 26 26 19 23 16 13 13 13 13 13 6 3 3 0 3 6 10
74 77 87 84 81 77 74 74 71 74 71 68 65 68 65 55 48 45 39 32 32 35 35 29 32 23 6 3 3 6 10 10 6 10 10 6 6 0 0 0 0 0 0
77 84 87 84 77 77 74 71 74 68 61 58 58 61 55 52 42 32 35 35 35 32 29 29 23 16 6 3 3 3 10 10 10 10 10 3 0 0 6 0 0 0 0
81 84 81 71 71 71 68 68 61 55 55 58 55 55 45 42 35 29 32 35 35 29 23 16 13 6 3 3 3 3 6 3 6 6 3 3 3 3 3 3 3 3 3
81 77 71 68 71 68 58 55 52 48 48 45 42 35 42 35 32 29 29 26 29 26 19 16 13 10 3 3 3 0 3 3 3 3 3 3 3 3 0 0 3 3 3
77 74 68 71 68 58 55 55 52 48 45 42 39 39 39 32 29 29 42 29 23 23 19 13 6 6 6 0 0 0 3 3 0 3 3 0 0 0 0 0 3 3 3
71 71 68 65 61 58 55 55 48 45 45 42 39 39 39 32 26 29 26 23 19 10 6 3 6 3 3 0 0 0 0 0 3 0 3 0 0 0 0 0 0 0 0
65 68 65 61 58 55 52 52 48 45 42 39 39 35 35 26 23 19 23 23 13 6 10 10 3 3 3 0 0 0 0 0 0 0 3 0 0 0 0 0 0 0 0
58 58 61 58 52 52 52 45 45 45 39 35 32 32 32 29 19 16 16 13 16 6 3 6 3 3 3 0 0 0 0 0 0 0 0 0 0 0 0 0 0 0 0
55 58 55 52 48 45 42 45 42 45 35 32 32 29 19 13 10 13 6 6 3 6 3 3 3 0 0 0 0 0 0 0 0 0 0 0 0 0 0 0 0 0 0
58 55 58 48 35 39 35 35 35 39 32 32 26 19 6 3 3 0 0 0 0 0 0 0 0 0 0 0 0 0 0 0 0 0 0 0 0 0 0 0 0 0 0
55 52 48 35 35 35 32 32 39 35 29 23 19 6 6 3 3 0 0 0 0 0 0 0 0 0 0 0 0 0 0 0 0 0 0 0 0 0 0 0 0 0 0

GEFSMW_con_cape1000_186.txt.gz
Probability
48 48 55 68 68 58 61 71 77 81 81 84 68 58 61 58 52 52 48 45 35 35 39 35 29 26 19 19 19 19 13 13 6 0 0 0 0 0 0 0 0 0 3
55 58 65 71 68 68 71 71 81 81 81 77 71 65 58 55 52 52 45 42 42 45 48 23 19 23 23 19 16 16 10 10 3 3 0 0 0 0 0 0 0 0 0
58 58 61 61 65 71 81 81 84 84 77 81 71 71 65 58 48 39 35 32 32 32 35 26 23 16 16 16 19 16 13 3 3 3 0 0 0 0 0 0 0 0 0
58 61 65 68 68 71 77 77 81 84 71 74 74 68 58 52 39 35 29 29 29 32 29 26 26 19 19 19 19 19 16 6 6 3 0 0 0 0 0 0 0 0 0
61 65 65 68 68 68 74 74 74 71 74 74 74 65 52 42 29 29 23 23 26 26 29 26 26 23 23 19 16 13 13 10 10 3 3 0 0 0 0 0 0 0 0
55 61 61 65 68 65 71 61 68 71 74 74 74 58 52 52 39 32 23 23 26 29 29 35 26 23 23 16 13 6 6 3 3 3 3 0 0 0 0 0 0 0 0
61 58 61 61 61 65 71 58 68 68 65 68 71 55 52 48 35 35 32 29 26 26 23 16 16 16 13 13 13 13 10 3 3 3 3 3 0 0 0 0 0 0 0
58 65 74 68 61 58 55 68 65 58 61 71 65 52 52 48 35 35 32 29 29 26 19 19 16 19 16 10 10 13 10 10 6 3 3 3 3 0 3 3 0 0 0
61 68 71 65 61 58 55 61 61 68 68 58 58 58 55 52 48 39 32 29 23 23 19 26 29 26 19 13 10 6 6 6 6 3 3 3 3 3 0 3 3 3 0
58 68 61 58 48 45 55 55 58 65 58 55 55 61 58 55 45 42 32 23 23 23 23 26 29 26 19 16 10 6 6 3 3 3 3 3 3 3 3 3 0 0 0
45 48 48 52 42 48 55 55 58 61 58 55 58 55 52 52 52 35 35 29 26 23 23 16 16 19 16 13 13 10 10 6 6 3 3 3 3 3 3 0 0 0 0
42 42 55 55 52 55 58 55 58 58 55 58 48 48 45 39 39 32 26 26 23 23 19 16 16 16 16 10 6 6 3 3 3 3 3 3 3 3 3 0 0 0 0
48 52 58 55 55 55 55 58 55 58 55 55 48 42 39 35 29 23 26 23 23 16 13 16 16 16 13 10 3 3 3 3 3 3 3 3 3 3 3 0 0 0 0
52 61 55 55 52 45 48 52 52 55 52 45 45 39 32 29 23 19 19 16 13 10 10 13 13 10 10 6 3 3 3 3 3 3 3 3 3 3 3 0 0 0 0
52 61 52 45 48 52 48 52 52 52 48 45 39 35 32 19 16 16 16 10 10 10 10 10 6 6 3 3 3 3 3 3 3 3 3 3 3 3 3 0 0 0 0
55 68 61 48 48 52 52 45 48 42 45 42 39 32 19 19 19 13 13 13 10 6 6 6 3 3 3 3 3 3 3 3 3 3 3 3 0 0 0 0 0 0 0
61 68 58 55 52 52 52 48 45 42 42 39 29 23 19 16 16 13 13 10 6 6 6 3 3 3 3 3 0 0 3 3 3 3 3 3 0 0 0 0 0 0 0
55 65 58 58 48 48 52 45 45 39 39 35 23 19 19 19 16 13 13 10 10 3 0 0 0 0 0 0 0 0 0 0 0 0 0 0 0 0 0 0 0 0 0
58 55 55 58 55 52 48 42 39 39 35 35 26 23 19 19 16 13 10 6 0 0 0 0 0 0 0 0 0 0 0 0 0 0 0 0 0 0 0 0 0 0 0
52 55 55 58 52 48 42 42 39 39 35 35 29 26 19 19 16 10 3 0 0 0 0 0 0 0 0 0 0 0 0 0 0 0 0 0 0 0 0 0 0 0 0
48 48 52 45 48 42 39 39 39 35 35 32 29 19 19 16 13 13 10 0 0 0 0 0 0 0 0 0 0 0 0 0 0 0 0 0 0 0 0 0 0 0 0
45 39 35 42 39 39 42 39 39 35 32 23 16 13 13 16 13 13 3 3 0 0 0 0 0 0 0 0 0 0 0 0 0 0 0 0 0 0 0 0 0 0 0
39 35 35 39 35 35 35 32 32 26 19 13 13 6 3 0 3 3 3 3 0 0 0 0 0 0 0 0 0 0 0 0 0 0 0 0 0 0 0 0 0 0 0
29 32 35 35 35 35 32 35 26 19 19 6 3 3 0 0 0 0 0 3 3 0 0 0 0 0 0 0 0 0 0 0 0 0 0 0 0 0 0 0 0 0 0
26 26 29 29 29 29 29 26 16 13 10 3 0 0 0 0 0 0 0 0 0 0 0 0 0 0 0 0 0 0 0 0 0 0 0 0 0 0 0 0 0 0 0
26 29 26 26 29 29 23 19 13 6 3 0 0 0 0 0 0 0 0 0 0 0 0 0 0 0 0 0 0 0 0 0 0 0 0 0 0 0 0 0 0 0 0

GEFSMW_con_cape1000_192.txt.gz
Probability
10 10 19 26 26 23 29 32 32 29 29 32 32 29 29 26 26 26 26 32 32 26 16 19 10 10 3 0 0 6 6 3 3 3 0 0 0 0 0 0 0 0 0
16 23 26 26 29 35 39 35 32 29 35 39 35 39 32 23 16 13 23 26 26 32 19 13 16 13 3 3 3 3 3 0 0 3 0 0 0 0 0 0 0 0 0
16 16 23 26 29 35 35 35 26 26 32 45 32 29 23 19 19 23 13 16 19 23 23 16 16 10 10 6 3 3 0 0 3 0 0 0 0 0 0 0 0 3 3
19 16 23 23 23 35 29 29 26 26 29 32 32 32 32 26 23 16 16 19 19 19 16 16 16 10 6 10 6 6 10 6 6 3 3 0 0 0 0 0 0 0 3
16 16 16 26 26 35 32 26 29 32 29 39 39 35 32 26 16 16 13 16 13 13 13 13 10 10 10 10 10 13 3 3 6 6 3 3 0 0 0 0 0 0 0
26 19 23 32 39 35 32 29 29 29 29 29 35 32 29 26 23 16 16 16 13 10 10 16 13 13 13 6 3 6 3 3 3 3 3 3 3 0 0 0 0 3 0
26 32 32 39 35 42 32 29 32 32 26 35 39 39 29 29 26 26 23 16 13 10 13 13 10 10 10 6 3 3 3 3 3 3 3 3 3 0 0 0 3 3 0
29 42 32 29 29 23 29 32 29 26 29 32 32 29 29 26 29 19 19 19 16 16 13 13 13 13 13 10 3 3 3 3 3 3 3 3 3 3 0 3 3 3 0
29 32 35 32 26 26 23 29 29 26 19 23 26 29 29 26 23 19 16 16 16 16 16 16 13 10 6 6 6 10 3 3 3 3 3 3 3 3 3 3 3 3 3
32 32 35 35 29 26 26 23 26 23 19 19 23 32 32 26 26 19 13 13 13 13 13 13 6 10 6 6 3 6 6 3 3 3 3 3 3 3 3 3 0 0 3
35 32 35 32 35 32 29 23 19 19 23 23 26 39 26 26 19 16 16 16 16 6 10 13 13 10 6 6 3 3 3 3 6 3 3 6 6 3 3 3 3 3 3
32 32 32 29 32 32 32 29 23 19 29 29 35 32 26 29 16 13 13 3 6 10 10 10 13 10 13 10 6 3 3 3 3 3 3 3 3 3 3 3 3 3 3
26 26 23 32 35 32 26 26 35 32 32 32 26 23 19 19 16 16 6 6 10 10 10 10 10 13 13 10 6 3 3 3 3 3 3 3 3 3 3 3 3 3 3
35 32 32 42 39 35 35 39 35 35 35 32 26 19 19 19 13 13 10 10 13 13 13 13 13 13 10 10 3 3 3 3 3 3 3 3 3 3 3 3 3 3 0
29 35 32 39 35 32 29 35 32 35 35 35 26 23 16 13 13 10 10 13 13 13 13 13 13 6 6 3 3 3 3 3 3 3 3 3 3 0 0 0 0 0 0
45 39 35 39 32 32 32 35 35 32 35 32 29 19 16 13 13 10 13 13 13 13 13 13 3 3 0 0 0 0 3 3 0 0 0 0 3 3 0 0 0 0 0
45 42 45 42 32 32 32 39 39 35 35 29 23 19 16 19 16 13 13 13 10 3 0 0 0 0 0 0 0 0 0 0 0 0 0 0 0 0 0 0 0 0 0
45 42 39 39 39 35 35 35 35 35 29 26 19 16 16 16 16 16 13 6 3 0 0 0 0 0 0 0 0 0 0 0 0 0 0 0 0 0 0 0 0 0 0
35 29 32 29 39 39 39 35 32 23 19 16 13 16 16 16 16 16 13 3 0 0 0 0 0 0 0 0 0 0 0 0 0 0 0 0 0 0 0 0 0 0 0
32 29 29 32 32 35 39 35 26 23 19 16 16 13 13 13 13 6 3 0 0 0 0 0 0 0 0 0 0 0 0 0 0 0 0 0 0 0 0 0 0 0 0
32 32 29 32 29 35 35 29 26 19 19 19 10 13 13 13 10 3 0 0 0 0 0 0 0 0 0 0 0 0 0 0 0 0 0 0 0 0 0 0 0 0 0
29 29 32 26 29 32 26 26 26 16 16 10 10 10 6 6 3 0 0 0 0 0 0 0 0 0 0 0 0 0 0 0 0 0 0 0 0 0 0 0 0 0 0
23 26 29 29 23 23 23 26 23 19 19 10 10 6 3 3 3 3 0 0 0 0 0 0 0 0 0 0 0 0 0 0 0 0 0 0 0 0 0 0 0 0 0
29 29 32 32 29 23 26 26 19 19 19 10 6 6 3 3 3 3 3 3 3 0 0 0 0 0 0 0 0 0 0 0 0 0 0 0 0 0 0 0 0 0 0
26 29 26 29 26 19 19 26 23 16 13 10 3 0 0 0 0 0 0 0 0 0 0 0 0 0 0 0 0 0 0 0 0 0 0 0 0 0 0 0 0 0 0
26 29 26 26 26 13 16 13 13 13 13 3 0 0 0 0 0 0 0 0 0 0 0 0 0 0 0 0 0 0 0 0 0 0 0 0 0 0 0 0 0 0 0

GEFSMW_con_cape1000_198.txt.gz
Probability
58 77 87 87 87 94 90 87 87 87 94 90 87 87 81 81 77 84 81 81 84 77 84 65 81 84 84 74 58 68 68 77 74 65 58 42 39 55 61 55 48 39 48
65 77 87 84 84 94 87 87 87 84 84 90 90 84 84 84 81 84 84 77 71 77 68 77 71 77 71 77 81 81 71 58 55 52 48 29 29 68 16 42 58 48 48
68 77 77 81 87 90 90 84 87 84 87 87 87 77 84 74 74 84 81 65 61 61 71 77 81 77 77 74 77 77 65 74 61 52 55 39 26 29 29 26 26 39 48
61 71 77 81 90 87 87 87 84 84 81 81 74 71 74 74 71 71 61 61 61 68 65 61 71 74 61 77 58 58 61 71 61 58 65 42 35 35 23 23 23 32 45
65 71 77 84 77 81 87 84 87 84 84 81 74 74 71 71 68 68 71 68 68 68 55 61 71 71 71 65 65 65 71 74 65 55 45 45 52 32 42 26 26 19 19
65 74 81 74 77 71 81 84 84 84 84 84 77 84 77 74 71 71 68 71 65 68 55 61 71 71 68 71 71 61 61 65 61 55 39 35 29 35 35 13 23 29 26
71 71 74 84 77 77 77 81 84 84 81 84 84 84 77 74 74 71 71 71 68 65 68 61 68 68 68 65 61 61 45 52 52 55 45 45 42 39 42 35 29 29 32
71 77 87 87 81 81 84 84 84 81 84 84 84 81 81 74 65 71 65 68 65 61 68 68 68 55 55 55 58 45 48 45 52 35 48 48 39 39 39 39 35 26 26
74 81 81 90 77 84 87 87 87 84 84 84 81 74 71 68 68 71 68 65 68 61 61 61 55 48 58 55 55 42 39 35 42 32 48 52 32 39 42 45 39 29 23
71 71 77 77 81 87 87 81 77 81 81 81 68 68 71 61 61 58 58 58 58 55 48 42 42 42 42 42 45 35 35 39 42 42 42 39 23 29 29 23 32 35 26
68 68 71 74 84 84 77 74 77 77 71 71 71 68 58 58 58 58 52 55 52 48 45 42 32 32 32 35 35 29 26 26 29 29 29 32 32 26 26 29 32 29 32
61 68 71 71 81 81 77 81 65 61 65 58 58 52 55 55 52 52 52 48 42 42 39 32 29 29 29 32 32 29 29 19 23 26 26 26 23 29 26 29 26 32 29
55 65 71 71 77 77 68 65 55 58 52 55 52 48 48 52 48 48 45 39 42 35 32 32 29 26 26 32 26 26 23 23 26 23 23 16 16 19 26 23 26 23 6
68 71 71 68 65 65 58 55 58 55 58 58 52 55 55 52 48 45 42 39 29 29 32 35 32 29 29 23 19 19 23 19 19 19 13 13 10 10 13 6 6 3 6
65 68 68 61 68 65 65 58 58 58 55 55 58 52 58 52 42 42 29 26 26 26 26 29 26 26 19 16 19 13 13 16 10 6 6 3 3 3 3 3 6 3 6
61 65 65 65 68 65 61 61 61 58 55 55 55 52 52 48 39 26 26 26 29 26 26 23 19 19 10 6 3 6 10 6 6 6 3 3 3 0 0 0 0 0 3
68 65 65 65 68 65 61 61 61 58 55 55 48 52 45 39 26 26 26 29 29 29 26 23 19 16 10 3 0 0 6 6 6 6 6 3 0 0 3 0 0 0 0
61 65 65 61 61 65 61 61 58 55 52 48 42 42 35 32 26 26 26 26 26 26 23 19 16 13 10 0 0 0 3 6 6 6 3 3 3 0 3 3 0 3 0
61 68 65 65 61 61 55 55 55 55 52 45 42 39 29 26 26 26 26 23 23 13 13 10 6 10 10 0 0 0 3 6 3 3 3 3 3 0 0 0 3 0 0
55 58 58 55 58 58 55 55 52 52 52 42 39 35 32 29 29 23 23 19 19 13 6 6 6 6 3 0 0 0 3 3 3 3 0 0 0 0 0 0 0 0 0
58 58 58 58 58 58 55 55 52 48 45 42 39 35 35 32 26 19 19 19 16 10 6 3 3 3 3 0 0 0 0 0 0 0 0 0 0 0 0 0 0 0 0
52 48 55 52 55 52 52 52 45 45 45 42 42 35 35 26 16 16 16 19 10 6 3 3 3 3 3 0 0 0 0 0 0 0 0 0 0 0 0 0 0 0 0
58 55 52 42 48 45 48 48 42 42 42 39 39 32 29 19 16 16 13 13 6 3 3 3 3 3 3 0 0 0 0 0 0 0 0 0 0 0 0 0 0 0 0
58 52 45 45 42 42 45 45 42 42 42 35 29 26 19 19 13 13 13 10 6 3 3 3 3 3 3 3 0 0 0 0 0 0 0 0 0 0 0 0 0 0 0
58 52 45 45 42 42 39 35 39 39 39 35 29 23 23 13 16 10 3 6 6 6 3 3 3 3 3 3 0 0 0 0 0 0 0 0 0 0 0 0 0 0 0
52 52 45 39 39 32 35 35 39 39 32 23 23 19 16 13 10 6 0 0 0 0 0 0 0 0 0 0 0 0 0 0 0 0 0 0 0 0 0 0 0 0 0

GEFSMW_con_cape1000_204.txt.gz
Probability
65 68 68 68 84 94 94 94 94 94 94 94 94 94 87 87 87 81 84 77 87 87 87 81 81 84 77 74 74 77 74 81 84 68 58 68 55 65 61 65 71 52 55
68 77 81 84 87 94 97 94 94 94 94 97 90 90 94 90 84 84 77 77 74 77 71 77 68 74 68 65 71 77 74 74 68 65 48 52 52 55 26 65 55 48 52
68 71 74 84 87 94 94 94 94 97 97 94 90 87 90 81 81 87 81 81 74 77 81 77 71 71 68 65 68 74 71 61 71 58 52 42 26 26 39 45 42 48 58
55 74 84 87 94 97 97 97 97 97 97 97 94 87 84 84 84 81 77 81 74 71 71 74 77 77 71 71 71 65 65 65 58 55 65 52 55 42 35 32 32 39 52
45 68 81 90 94 90 94 97 97 97 97 97 90 90 84 81 81 81 81 77 74 71 71 71 74 77 77 71 68 71 68 68 58 58 55 55 48 42 26 26 26 26 39
48 68 81 90 94 94 94 94 97 97 97 94 90 90 90 84 81 81 77 77 74 74 74 74 74 74 74 74 74 71 71 68 65 58 58 48 48 29 32 26 29 19 26
55 68 81 94 97 97 97 97 97 97 90 90 90 90 87 84 81 77 77 77 74 74 74 74 74 71 74 71 71 71 71 68 65 55 45 48 45 35 29 32 26 13 23
61 77 87 94 90 97 97 94 94 90 90 90 90 90 84 74 77 77 74 74 74 74 74 74 74 74 74 65 68 71 68 61 61 48 52 52 48 42 35 29 19 10 13
65 68 71 81 90 90 94 94 94 87 90 87 87 81 77 71 74 74 68 68 71 68 68 65 65 65 61 61 65 58 58 58 61 55 45 42 45 42 39 32 26 16 13
65 71 71 81 81 94 94 94 94 87 87 84 81 77 74 68 68 65 68 65 65 61 58 55 58 58 55 52 48 52 58 52 48 48 45 32 32 39 42 32 29 23 13
55 65 74 74 84 84 87 87 94 84 81 77 74 71 68 58 58 61 61 61 65 55 58 52 52 52 45 42 42 39 42 45 42 35 29 32 39 32 29 35 32 29 19
65 61 71 77 81 77 81 81 77 74 68 71 68 65 68 61 58 61 61 58 52 52 45 45 45 45 42 42 39 35 35 35 35 29 29 29 16 23 26 29 32 26 23
58 58 71 77 71 77 74 77 71 68 61 61 61 65 65 65 61 61 58 58 52 48 39 39 42 42 42 42 32 35 35 29 29 23 19 19 13 10 16 16 16 19 6
65 65 74 81 71 74 74 74 71 65 58 58 58 58 61 58 58 52 52 52 48 35 39 39 35 32 29 26 23 29 29 29 19 13 13 10 6 6 10 3 6 6 3
65 71 71 74 71 71 74 74 71 61 61 58 55 55 55 58 58 48 48 45 39 35 32 32 29 26 19 16 16 23 19 23 16 10 10 10 6 6 3 3 6 3 3
68 71 74 74 74 71 74 74 65 65 61 61 55 55 55 55 55 48 45 42 32 32 32 26 26 19 13 6 6 13 13 13 10 10 10 6 3 0 0 0 0 0 3
65 71 71 77 74 74 71 71 68 61 61 61 58 55 55 48 52 45 42 35 35 32 26 26 19 16 10 6 3 3 10 6 10 6 6 3 0 0 3 0 0 0 0
71 68 71 68 71 68 68 68 68 61 61 61 58 55 52 48 45 45 42 35 32 32 26 23 19 10 6 0 3 3 3 6 6 6 6 10 6 3 3 3 0 0 0
71 71 71 68 68 68 65 71 68 61 61 58 55 48 48 42 39 39 42 32 29 29 23 19 13 3 6 0 0 0 3 3 6 6 6 6 6 0 0 0 0 0 0
65 74 68 61 65 65 65 65 65 55 55 55 55 52 48 39 39 39 35 35 32 29 16 13 10 3 3 0 0 0 3 3 3 6 3 0 0 0 0 0 0 0 0
71 74 68 65 71 68 68 68 65 61 55 55 48 52 48 42 39 32 32 32 29 26 19 13 6 3 3 0 0 0 3 3 3 3 3 0 0 0 0 0 0 0 0
65 61 68 71 71 68 68 68 61 61 55 52 52 48 42 29 29 29 32 29 26 19 16 10 6 3 3 0 0 0 0 0 3 3 0 0 0 0 0 0 0 0 0
61 61 55 68 65 68 61 61 58 55 52 48 48 42 39 32 23 23 23 23 23 16 10 10 3 3 3 0 0 0 0 0 0 0 0 0 0 0 0 0 0 0 0
61 55 58 58 65 61 61 61 58 52 45 42 39 39 32 32 23 23 16 16 19 16 13 13 13 6 6 3 0 0 0 0 0 0 0 0 0 0 0 0 0 0 0
61 58 52 55 55 55 58 55 55 45 39 35 29 26 26 26 29 16 16 13 19 13 10 10 13 10 6 3 0 0 0 0 0 0 0 0 0 0 0 0 0 0 0
61 58 52 48 52 52 52 55 55 52 39 26 26 23 26 23 16 13 3 3 3 0 0 0 3 0 3 0 0 0 0 0 0 0 0 0 0 0 0 0 0 0 0